,,,PA_Meas_PMT16A,,PR_Meas_QMR101_102,,RH_Meas_QMH101,,SR_Meas_QMS101,,TA_Meas_QMH101,,GenWind,,GenWind,
date,time,status,PA,status,PR,status,RH,status,SR,status,TA,status,DirAvg,status,SpdAvg,
2011-07-10, 00:00:04,VALID,1005.03,VALID,0,INVALID,163.647,VALID,0,VALID,25.4149,VALID,3,VALID,0,
2011-07-10, 00:01:04,VALID,1005.03,VALID,0,INVALID,163.655,VALID,0,VALID,25.4149,VALID,39,VALID,0,
2011-07-10, 00:02:04,VALID,1005.05,VALID,0,INVALID,163.655,VALID,0,VALID,25.3779,VALID,16,VALID,0,
2011-07-10, 00:03:04,VALID,1005.04,VALID,0,INVALID,163.685,VALID,0,VALID,25.4169,VALID,14,VALID,0,
2011-07-10, 00:04:04,VALID,1005.08,VALID,0,INVALID,163.647,VALID,0,VALID,25.4344,VALID,19,VALID,0,
2011-07-10, 00:05:04,VALID,1005.06,VALID,0,INVALID,163.647,VALID,0,VALID,25.4363,VALID,45,VALID,0,
2011-07-10, 00:06:04,VALID,1005.08,VALID,0,INVALID,163.67,VALID,0,VALID,25.4149,VALID,28,VALID,0,
2011-07-10, 00:07:04,VALID,1005.04,VALID,0,INVALID,163.662,VALID,0,VALID,25.3955,VALID,3,VALID,0,
2011-07-10, 00:08:04,VALID,1005.04,VALID,0,INVALID,163.662,VALID,0,VALID,25.3955,VALID,15,VALID,0,
2011-07-10, 00:09:04,VALID,1005.05,VALID,0,INVALID,163.678,VALID,0.100563,VALID,25.3565,VALID,8,VALID,0,
2011-07-10, 00:10:04,VALID,1005.03,VALID,0,INVALID,163.662,VALID,0,VALID,25.3176,VALID,17,VALID,0,
2011-07-10, 00:11:04,VALID,1005.02,VALID,0,INVALID,163.647,VALID,0,VALID,25.2786,VALID,18,VALID,0,
2011-07-10, 00:12:04,VALID,1005.02,VALID,0,INVALID,163.67,VALID,0,VALID,25.2592,VALID,1,VALID,0,
2011-07-10, 00:13:04,VALID,1005.03,VALID,0,INVALID,163.662,VALID,0,VALID,25.2786,VALID,16,VALID,0,
2011-07-10, 00:14:04,VALID,1005.04,VALID,0,INVALID,163.693,VALID,0,VALID,25.2592,VALID,20,VALID,0,
2011-07-10, 00:15:04,VALID,1005.02,VALID,0,INVALID,163.662,VALID,0,VALID,25.2378,VALID,10,VALID,0,
2011-07-10, 00:16:04,VALID,1005.02,VALID,0,INVALID,163.67,VALID,0,VALID,25.3195,VALID,13,VALID,0,
2011-07-10, 00:17:04,VALID,1005.03,VALID,0,INVALID,163.701,VALID,0,VALID,25.2981,VALID,21,VALID,0,
2011-07-10, 00:18:04,VALID,1005.01,VALID,0,INVALID,163.678,VALID,0,VALID,25.2981,VALID,1,VALID,0,
2011-07-10, 00:19:04,VALID,1004.97,VALID,0,INVALID,163.678,VALID,0,VALID,25.3176,VALID,14,VALID,0,
2011-07-10, 00:20:04,VALID,1004.98,VALID,0,INVALID,163.662,VALID,0,VALID,25.2981,VALID,7,VALID,0,
2011-07-10, 00:21:04,VALID,1004.94,VALID,0,INVALID,163.639,VALID,0,VALID,25.3176,VALID,19,VALID,0,
2011-07-10, 00:22:05,VALID,1004.92,VALID,0,INVALID,163.647,VALID,0,VALID,25.337,VALID,14,VALID,0,
2011-07-10, 00:23:05,VALID,1004.9,VALID,0,INVALID,163.662,VALID,0,VALID,25.3955,VALID,22,VALID,0,
2011-07-10, 00:24:05,VALID,1004.9,VALID,0,INVALID,163.647,VALID,0,VALID,25.4363,VALID,13,VALID,0,
2011-07-10, 00:25:05,VALID,1004.91,VALID,0,INVALID,163.67,VALID,0,VALID,25.4558,VALID,15,VALID,0,
2011-07-10, 00:26:05,VALID,1004.9,VALID,0,INVALID,163.678,VALID,0,VALID,25.4539,VALID,28,VALID,0,
2011-07-10, 00:27:05,VALID,1004.89,VALID,0,INVALID,163.678,VALID,0,VALID,25.4948,VALID,20,VALID,0,
2011-07-10, 00:28:05,VALID,1004.91,VALID,0,INVALID,163.662,VALID,0,VALID,25.4948,VALID,9,VALID,0,
2011-07-10, 00:29:05,VALID,1004.86,VALID,0,INVALID,163.632,VALID,0,VALID,25.4539,VALID,15,VALID,0,
2011-07-10, 00:30:05,VALID,1004.88,VALID,0,INVALID,163.678,VALID,0,VALID,25.4928,VALID,5,VALID,0,
2011-07-10, 00:31:05,VALID,1004.83,VALID,0,INVALID,163.655,VALID,0,VALID,25.4734,VALID,8,VALID,0,
2011-07-10, 00:32:05,VALID,1004.84,VALID,0,INVALID,163.639,VALID,0,VALID,25.4928,VALID,9,VALID,0,
2011-07-10, 00:33:05,VALID,1004.83,VALID,0,INVALID,163.662,VALID,0,VALID,25.5123,VALID,11,VALID,0,
2011-07-10, 00:34:05,VALID,1004.84,VALID,0,INVALID,163.647,VALID,0,VALID,25.5123,VALID,23,VALID,0,
2011-07-10, 00:35:05,VALID,1004.84,VALID,0,INVALID,163.647,VALID,0,VALID,25.5104,VALID,17,VALID,0,
2011-07-10, 00:36:05,VALID,1004.79,VALID,0,INVALID,163.67,VALID,0,VALID,25.6292,VALID,3,VALID,0,
2011-07-10, 00:37:05,VALID,1004.77,VALID,0,INVALID,163.655,VALID,0,VALID,25.67,VALID,6,VALID,0,
2011-07-10, 00:38:05,VALID,1004.81,VALID,0,INVALID,163.655,VALID,0,VALID,25.6486,VALID,1,VALID,0,
2011-07-10, 00:39:05,VALID,1004.8,VALID,0,INVALID,163.617,VALID,0,VALID,25.6292,VALID,3,VALID,0,
2011-07-10, 00:40:05,VALID,1004.77,VALID,0,INVALID,163.639,VALID,0,VALID,25.5902,VALID,3,VALID,0,
2011-07-10, 00:41:05,VALID,1004.8,VALID,0,INVALID,163.655,VALID,0,VALID,25.5902,VALID,32,VALID,0,
2011-07-10, 00:42:05,VALID,1004.73,VALID,0,INVALID,163.624,VALID,0,VALID,25.6097,VALID,64,VALID,0,
2011-07-10, 00:43:05,VALID,1004.74,VALID,0,INVALID,163.647,VALID,0,VALID,25.5902,VALID,14,VALID,0,
2011-07-10, 00:44:05,VALID,1004.75,VALID,0,INVALID,163.662,VALID,0,VALID,25.6292,VALID,20,VALID,0,
2011-07-10, 00:45:05,VALID,1004.75,VALID,0,INVALID,163.609,VALID,0,VALID,25.6077,VALID,16,VALID,0,
2011-07-10, 00:46:05,VALID,1004.73,VALID,0,INVALID,163.632,VALID,0,VALID,25.5902,VALID,7,VALID,0,
2011-07-10, 00:47:05,VALID,1004.75,VALID,0,INVALID,163.624,VALID,0,VALID,25.5727,VALID,12,VALID,0,
2011-07-10, 00:48:05,VALID,1004.7,VALID,0,INVALID,163.67,VALID,0,VALID,25.4928,VALID,17,VALID,0,
2011-07-10, 00:49:05,VALID,1004.72,VALID,0,INVALID,163.67,VALID,0,VALID,25.4539,VALID,14,VALID,0,
2011-07-10, 00:50:05,VALID,1004.67,VALID,0,INVALID,163.647,VALID,0,VALID,25.4344,VALID,4,VALID,0,
2011-07-10, 00:51:05,VALID,1004.67,VALID,0,INVALID,163.639,VALID,0,VALID,25.4363,VALID,21,VALID,0,
2011-07-10, 00:52:05,VALID,1004.66,VALID,0,INVALID,163.662,VALID,0,VALID,25.4558,VALID,356,VALID,0,
2011-07-10, 00:53:05,VALID,1004.64,VALID,0,INVALID,163.662,VALID,0,VALID,25.4149,VALID,359,VALID,0,
2011-07-10, 00:54:05,VALID,1004.64,VALID,0,INVALID,163.67,VALID,0,VALID,25.4149,VALID,4,VALID,0,
2011-07-10, 00:55:05,VALID,1004.64,VALID,0,INVALID,163.655,VALID,0,VALID,25.376,VALID,1,VALID,0,
2011-07-10, 00:56:05,VALID,1004.67,VALID,0,INVALID,163.678,VALID,0,VALID,25.3974,VALID,7,VALID,0,
2011-07-10, 00:57:05,VALID,1004.65,VALID,0,INVALID,163.685,VALID,0,VALID,25.3779,VALID,4,VALID,0,
2011-07-10, 00:58:05,VALID,1004.62,VALID,0,INVALID,163.67,VALID,0,VALID,25.3176,VALID,1,VALID,0,
2011-07-10, 00:59:05,VALID,1004.66,VALID,0,INVALID,163.67,VALID,0,VALID,25.3351,VALID,5,VALID,0,
2011-07-10, 01:00:05,VALID,1004.63,VALID,0,INVALID,163.685,VALID,0,VALID,25.3974,VALID,359,VALID,0,
2011-07-10, 01:01:05,VALID,1004.65,VALID,0,INVALID,163.67,VALID,0,VALID,25.3565,VALID,4,VALID,0,
2011-07-10, 01:02:05,VALID,1004.6,VALID,0,INVALID,163.647,VALID,0,VALID,25.3565,VALID,15,VALID,0,
2011-07-10, 01:03:05,VALID,1004.58,VALID,0,INVALID,163.662,VALID,0,VALID,25.376,VALID,4,VALID,0,
2011-07-10, 01:04:05,VALID,1004.55,VALID,0,INVALID,163.708,VALID,0,VALID,25.376,VALID,350,VALID,0,
2011-07-10, 01:05:05,VALID,1004.54,VALID,0,INVALID,163.662,VALID,0,VALID,25.3974,VALID,13,VALID,0,
2011-07-10, 01:06:05,VALID,1004.54,VALID,0,INVALID,163.662,VALID,0,VALID,25.376,VALID,24,VALID,0,
2011-07-10, 01:07:05,VALID,1004.54,VALID,0,INVALID,163.662,VALID,0,VALID,25.337,VALID,357,VALID,0,
2011-07-10, 01:08:05,VALID,1004.55,VALID,0,INVALID,163.655,VALID,0.100563,VALID,25.2786,VALID,5,VALID,0,
2011-07-10, 01:09:05,VALID,1004.52,VALID,0,INVALID,163.662,VALID,0.100563,VALID,25.2397,VALID,11,VALID,0,
2011-07-10, 01:10:05,VALID,1004.49,VALID,0,INVALID,163.655,VALID,0,VALID,25.2416,VALID,2,VALID,0,
2011-07-10, 01:11:05,VALID,1004.49,VALID,0,INVALID,163.723,VALID,0.100563,VALID,25.2202,VALID,3,VALID,0,
2011-07-10, 01:12:05,VALID,1004.45,VALID,0,INVALID,163.662,VALID,0,VALID,25.2202,VALID,358,VALID,0,
2011-07-10, 01:13:05,VALID,1004.44,VALID,0,INVALID,163.701,VALID,0,VALID,25.2592,VALID,22,VALID,0,
2011-07-10, 01:14:05,VALID,1004.43,VALID,0,INVALID,163.685,VALID,0,VALID,25.2981,VALID,360,VALID,0,
2011-07-10, 01:15:05,VALID,1004.41,VALID,0,INVALID,163.662,VALID,0,VALID,25.2981,VALID,17,VALID,0,
2011-07-10, 01:16:05,VALID,1004.4,VALID,0,INVALID,163.685,VALID,0,VALID,25.2981,VALID,10,VALID,0,
2011-07-10, 01:17:05,VALID,1004.42,VALID,0,INVALID,163.701,VALID,0,VALID,25.2786,VALID,14,VALID,0,
2011-07-10, 01:18:05,VALID,1004.41,VALID,0,INVALID,163.685,VALID,0,VALID,25.2592,VALID,12,VALID,0,
2011-07-10, 01:19:05,VALID,1004.38,VALID,0,INVALID,163.678,VALID,0,VALID,25.2397,VALID,3,VALID,0,
2011-07-10, 01:20:05,VALID,1004.39,VALID,0,INVALID,163.655,VALID,0,VALID,25.2611,VALID,347,VALID,0,
2011-07-10, 01:21:05,VALID,1004.37,VALID,0,INVALID,163.655,VALID,0,VALID,25.2592,VALID,352,VALID,0,
2011-07-10, 01:22:05,VALID,1004.36,VALID,0,INVALID,163.701,VALID,0,VALID,25.2397,VALID,15,VALID,0,
2011-07-10, 01:23:05,VALID,1004.32,VALID,0,INVALID,163.662,VALID,0,VALID,25.2416,VALID,13,VALID,0,
2011-07-10, 01:24:05,VALID,1004.31,VALID,0,INVALID,163.693,VALID,0,VALID,25.1813,VALID,353,VALID,0,
2011-07-10, 01:25:05,VALID,1004.31,VALID,0,INVALID,163.678,VALID,0,VALID,25.2202,VALID,17,VALID,0,
2011-07-10, 01:26:05,VALID,1004.28,VALID,0,INVALID,163.662,VALID,0,VALID,25.2786,VALID,6,VALID,0,
2011-07-10, 01:27:05,VALID,1004.26,VALID,0,INVALID,163.647,VALID,0,VALID,25.339,VALID,7,VALID,0,
2011-07-10, 01:28:05,VALID,1004.23,VALID,0,INVALID,163.693,VALID,0.100563,VALID,25.337,VALID,5,VALID,0,
2011-07-10, 01:29:05,VALID,1004.24,VALID,0,INVALID,163.67,VALID,0,VALID,25.3584,VALID,6,VALID,0,
2011-07-10, 01:30:05,VALID,1004.23,VALID,0,INVALID,163.662,VALID,0.100563,VALID,25.337,VALID,5,VALID,0,
2011-07-10, 01:31:05,VALID,1004.25,VALID,0,INVALID,163.67,VALID,0.100563,VALID,25.337,VALID,8,VALID,0,
2011-07-10, 01:32:05,VALID,1004.24,VALID,0,INVALID,163.693,VALID,0,VALID,25.3176,VALID,4,VALID,0,
2011-07-10, 01:33:05,VALID,1004.23,VALID,0,INVALID,163.647,VALID,0,VALID,25.2962,VALID,9,VALID,0,
2011-07-10, 01:34:05,VALID,1004.23,VALID,0,INVALID,163.67,VALID,0.100563,VALID,25.2981,VALID,357,VALID,0,
2011-07-10, 01:35:05,VALID,1004.22,VALID,0,INVALID,163.685,VALID,0.100563,VALID,25.2981,VALID,6,VALID,0,
2011-07-10, 01:36:05,VALID,1004.19,VALID,0,INVALID,163.678,VALID,0.100563,VALID,25.2981,VALID,8,VALID,0,
2011-07-10, 01:37:05,VALID,1004.19,VALID,0,INVALID,163.655,VALID,0,VALID,25.2981,VALID,29,VALID,0,
2011-07-10, 01:38:05,VALID,1004.16,VALID,0,INVALID,163.662,VALID,0,VALID,25.3195,VALID,13,VALID,0,
2011-07-10, 01:39:05,VALID,1004.14,VALID,0,INVALID,163.693,VALID,0.100563,VALID,25.2981,VALID,15,VALID,0,
2011-07-10, 01:40:05,VALID,1004.08,VALID,0,INVALID,163.662,VALID,0,VALID,25.2592,VALID,19,VALID,0,
2011-07-10, 01:41:05,VALID,1004.08,VALID,0,INVALID,163.678,VALID,0.100563,VALID,25.2397,VALID,11,VALID,0,
2011-07-10, 01:42:05,VALID,1004.07,VALID,0,INVALID,163.647,VALID,0.100563,VALID,25.2592,VALID,355,VALID,0,
2011-07-10, 01:43:05,VALID,1004.06,VALID,0,INVALID,163.655,VALID,0,VALID,25.2592,VALID,22,VALID,0,
2011-07-10, 01:44:05,VALID,1004.04,VALID,0,INVALID,163.678,VALID,0.100563,VALID,25.2786,VALID,11,VALID,0,
2011-07-10, 01:45:05,VALID,1003.99,VALID,0,INVALID,163.67,VALID,0,VALID,25.2981,VALID,8,VALID,0,
2011-07-10, 01:46:05,VALID,1004.01,VALID,0,INVALID,163.693,VALID,0.100563,VALID,25.3176,VALID,22,VALID,0,
2011-07-10, 01:47:05,VALID,1003.99,VALID,0,INVALID,163.662,VALID,0,VALID,25.3955,VALID,17,VALID,0,
2011-07-10, 01:48:05,VALID,1003.99,VALID,0,INVALID,163.655,VALID,0.100563,VALID,25.4344,VALID,22,VALID,0,
2011-07-10, 01:49:05,VALID,1004.01,VALID,0,INVALID,163.617,VALID,0,VALID,25.4714,VALID,19,VALID,0,
2011-07-10, 01:50:05,VALID,1004.01,VALID,0,INVALID,163.624,VALID,0.100563,VALID,25.5123,VALID,27,VALID,0,
2011-07-10, 01:51:05,VALID,1004,VALID,0,INVALID,163.639,VALID,0,VALID,25.5513,VALID,33,VALID,0,
2011-07-10, 01:52:05,VALID,1003.99,VALID,0,INVALID,163.662,VALID,0.100563,VALID,25.5298,VALID,25,VALID,0,
2011-07-10, 01:53:05,VALID,1003.99,VALID,0,INVALID,163.632,VALID,0.100563,VALID,25.5318,VALID,23,VALID,0,
2011-07-10, 01:54:05,VALID,1003.96,VALID,0,INVALID,163.632,VALID,0.100563,VALID,25.4714,VALID,28,VALID,0,
2011-07-10, 01:55:05,VALID,1003.97,VALID,0,INVALID,163.632,VALID,0.100563,VALID,25.4539,VALID,38,VALID,0,
2011-07-10, 01:56:05,VALID,1003.95,VALID,0,INVALID,163.655,VALID,0.100563,VALID,25.3955,VALID,36,VALID,0,
2011-07-10, 01:57:05,VALID,1003.92,VALID,0,INVALID,163.678,VALID,0.100563,VALID,25.3546,VALID,13,VALID,0,
2011-07-10, 01:58:05,VALID,1003.91,VALID,0,INVALID,163.67,VALID,0,VALID,25.3565,VALID,26,VALID,0,
2011-07-10, 01:59:05,VALID,1003.9,VALID,0,INVALID,163.655,VALID,0,VALID,25.376,VALID,7,VALID,0,
2011-07-10, 02:00:05,VALID,1003.94,VALID,0,INVALID,163.655,VALID,0.100563,VALID,25.3955,VALID,13,VALID,0,
2011-07-10, 02:01:05,VALID,1003.97,VALID,0,INVALID,163.685,VALID,0,VALID,25.4539,VALID,358,VALID,0,
2011-07-10, 02:02:05,VALID,1003.98,VALID,0,INVALID,163.67,VALID,0.100563,VALID,25.4909,VALID,12,VALID,0,
2011-07-10, 02:03:05,VALID,1004,VALID,0,INVALID,163.632,VALID,0,VALID,25.5513,VALID,20,VALID,0,
2011-07-10, 02:04:05,VALID,1004,VALID,0,INVALID,163.624,VALID,0,VALID,25.6292,VALID,11,VALID,0,
2011-07-10, 02:05:05,VALID,1004.03,VALID,0,INVALID,150.014,VALID,0.100563,VALID,25.7265,VALID,359,VALID,0,
2011-07-10, 02:06:05,VALID,1004.05,VALID,0,INVALID,144.155,VALID,0,VALID,25.7246,VALID,11,VALID,0,
2011-07-10, 02:07:05,VALID,1004.04,VALID,0,INVALID,138.823,VALID,0,VALID,25.746,VALID,32,VALID,0,
2011-07-10, 02:08:05,VALID,1004.05,VALID,0,INVALID,138.807,VALID,0.100563,VALID,25.7655,VALID,9,VALID,0,
2011-07-10, 02:09:05,VALID,1004.12,VALID,0,INVALID,140.287,VALID,0.100563,VALID,25.7051,VALID,13,VALID,0,
2011-07-10, 02:10:05,VALID,1004.09,VALID,0,INVALID,140.577,VALID,0,VALID,25.7051,VALID,16,VALID,0,
2011-07-10, 02:11:05,VALID,1004.11,VALID,0,INVALID,146.36,VALID,0,VALID,25.6876,VALID,23,VALID,0,
2011-07-10, 02:12:05,VALID,1004.09,VALID,0,INVALID,155.095,VALID,0,VALID,25.6292,VALID,43,VALID,0,
2011-07-10, 02:13:05,VALID,1004.12,VALID,0,INVALID,163.617,VALID,0,VALID,25.5532,VALID,20,VALID,0,
2011-07-10, 02:14:05,VALID,1004.09,VALID,0,INVALID,163.655,VALID,0.100563,VALID,25.4928,VALID,28,VALID,0,
2011-07-10, 02:15:05,VALID,1004.12,VALID,0,INVALID,163.624,VALID,0,VALID,25.4539,VALID,53,VALID,0,
2011-07-10, 02:16:05,VALID,1004.08,VALID,0,INVALID,163.662,VALID,0.100563,VALID,25.4149,VALID,38,VALID,0,
2011-07-10, 02:17:05,VALID,1004.06,VALID,0,INVALID,163.647,VALID,0,VALID,25.3565,VALID,18,VALID,0,
2011-07-10, 02:18:05,VALID,1004.04,VALID,0,INVALID,163.655,VALID,0.100563,VALID,25.376,VALID,33,VALID,0,
2011-07-10, 02:19:05,VALID,1004.03,VALID,0,INVALID,163.662,VALID,0,VALID,25.339,VALID,6,VALID,0,
2011-07-10, 02:20:05,VALID,1004.05,VALID,0,INVALID,163.67,VALID,0,VALID,25.2786,VALID,3,VALID,0,
2011-07-10, 02:21:05,VALID,1004.05,VALID,0,INVALID,163.655,VALID,0.100563,VALID,25.2786,VALID,37,VALID,0,
2011-07-10, 02:22:05,VALID,1004.06,VALID,0,INVALID,163.67,VALID,0,VALID,25.2786,VALID,19,VALID,0,
2011-07-10, 02:23:05,VALID,1004.07,VALID,0,INVALID,163.639,VALID,0,VALID,25.2611,VALID,25,VALID,0,
2011-07-10, 02:24:05,VALID,1004.12,VALID,0,INVALID,163.662,VALID,0,VALID,25.2786,VALID,37,VALID,0,
2011-07-10, 02:25:05,VALID,1004.12,VALID,0,INVALID,163.662,VALID,0,VALID,25.2786,VALID,85,VALID,0,
2011-07-10, 02:26:05,VALID,1004.2,VALID,0,INVALID,163.647,VALID,0,VALID,25.2202,VALID,106,VALID,0,
2011-07-10, 02:27:05,VALID,1004.3,VALID,0,INVALID,163.685,VALID,0,VALID,25.1442,VALID,151,VALID,0,
2011-07-10, 02:28:05,VALID,1004.33,VALID,0,INVALID,163.678,VALID,0,VALID,24.9866,VALID,156,VALID,0,
2011-07-10, 02:29:05,VALID,1004.36,VALID,0,INVALID,163.716,VALID,0.100563,VALID,24.9106,VALID,143,VALID,0,
2011-07-10, 02:30:05,VALID,1004.41,VALID,0,INVALID,163.685,VALID,0,VALID,24.8308,VALID,137,VALID,0,
2011-07-10, 02:31:05,VALID,1004.47,VALID,0,INVALID,163.708,VALID,0,VALID,24.8308,VALID,149,VALID,0,
2011-07-10, 02:32:05,VALID,1004.51,VALID,0,INVALID,163.678,VALID,0.100563,VALID,24.8503,VALID,133,VALID,0,
2011-07-10, 02:33:05,VALID,1004.48,VALID,0,INVALID,163.693,VALID,0,VALID,24.8289,VALID,138,VALID,0,
2011-07-10, 02:34:05,VALID,1004.51,VALID,0,INVALID,163.693,VALID,0,VALID,24.8911,VALID,138,VALID,0,
2011-07-10, 02:35:05,VALID,1004.52,VALID,0,INVALID,163.67,VALID,0,VALID,24.9106,VALID,127,VALID,0,
2011-07-10, 02:36:05,VALID,1004.48,VALID,0,INVALID,163.67,VALID,0,VALID,24.9087,VALID,98,VALID,0,
2011-07-10, 02:37:05,VALID,1004.46,VALID,0,INVALID,163.655,VALID,0,VALID,24.9282,VALID,151,VALID,0,
2011-07-10, 02:38:05,VALID,1004.45,VALID,0,INVALID,163.67,VALID,0,VALID,24.9282,VALID,138,VALID,0,
2011-07-10, 02:39:05,VALID,1004.44,VALID,0,INVALID,163.678,VALID,0,VALID,24.9476,VALID,111,VALID,0,
2011-07-10, 02:40:05,VALID,1004.41,VALID,0,INVALID,163.655,VALID,0,VALID,24.9866,VALID,100,VALID,0,
2011-07-10, 02:41:05,VALID,1004.4,VALID,0,INVALID,163.678,VALID,0,VALID,25.006,VALID,87,VALID,0,
2011-07-10, 02:42:05,VALID,1004.39,VALID,0,INVALID,163.655,VALID,0,VALID,25.006,VALID,81,VALID,0,
2011-07-10, 02:43:05,VALID,1004.36,VALID,0,INVALID,163.662,VALID,0,VALID,24.9671,VALID,64,VALID,0,
2011-07-10, 02:44:05,VALID,1004.34,VALID,0,INVALID,163.67,VALID,0,VALID,24.969,VALID,63,VALID,0,
2011-07-10, 02:45:05,VALID,1004.29,VALID,0,INVALID,163.678,VALID,0,VALID,24.93,VALID,65,VALID,0,
2011-07-10, 02:46:05,VALID,1004.28,VALID,0,INVALID,163.693,VALID,0,VALID,24.9106,VALID,64,VALID,0,
2011-07-10, 02:47:05,VALID,1004.25,VALID,0,INVALID,163.685,VALID,0,VALID,24.9087,VALID,103,VALID,0,
2011-07-10, 02:48:05,VALID,1004.24,VALID,0,INVALID,163.701,VALID,0,VALID,24.8892,VALID,104,VALID,0,
2011-07-10, 02:49:05,VALID,1004.25,VALID,0,INVALID,163.693,VALID,0,VALID,24.8911,VALID,101,VALID,0,
2011-07-10, 02:50:05,VALID,1004.25,VALID,0,INVALID,163.701,VALID,0,VALID,24.8308,VALID,77,VALID,0,
2011-07-10, 02:51:05,VALID,1004.24,VALID,0,INVALID,163.685,VALID,0,VALID,24.8308,VALID,79,VALID,0,
2011-07-10, 02:52:05,VALID,1004.22,VALID,0,INVALID,163.716,VALID,0,VALID,24.8132,VALID,79,VALID,0,
2011-07-10, 02:53:05,VALID,1004.26,VALID,0,INVALID,163.701,VALID,0,VALID,24.7724,VALID,66,VALID,0,
2011-07-10, 02:54:05,VALID,1004.23,VALID,0,INVALID,163.701,VALID,0,VALID,24.7529,VALID,66,VALID,0,
2011-07-10, 02:55:05,VALID,1004.26,VALID,0,INVALID,163.701,VALID,0.100563,VALID,24.7159,VALID,66,VALID,0,
2011-07-10, 02:56:05,VALID,1004.25,VALID,0,INVALID,163.716,VALID,0,VALID,24.6556,VALID,30,VALID,0,
2011-07-10, 02:57:04,VALID,1004.23,VALID,0,INVALID,163.701,VALID,0,VALID,24.6166,VALID,33,VALID,0,
2011-07-10, 02:58:04,VALID,1004.22,VALID,0,INVALID,163.693,VALID,0,VALID,24.6166,VALID,90,VALID,0,
2011-07-10, 02:59:04,VALID,1004.26,VALID,0,INVALID,163.716,VALID,0,VALID,24.6185,VALID,117,VALID,0,
2011-07-10, 03:00:04,VALID,1004.27,VALID,0,INVALID,163.701,VALID,0,VALID,24.6166,VALID,138,VALID,0,
2011-07-10, 03:01:04,VALID,1004.3,VALID,0,INVALID,163.723,VALID,0,VALID,24.6769,VALID,147,VALID,0,
2011-07-10, 03:02:04,VALID,1004.35,VALID,0,INVALID,163.708,VALID,0,VALID,24.6964,VALID,140,VALID,0,
2011-07-10, 03:03:04,VALID,1004.36,VALID,0,INVALID,163.731,VALID,0,VALID,24.7353,VALID,114,VALID,0,
2011-07-10, 03:04:04,VALID,1004.42,VALID,0,INVALID,163.708,VALID,0,VALID,24.714,VALID,107,VALID,0,
2011-07-10, 03:05:04,VALID,1004.41,VALID,0,INVALID,163.723,VALID,0,VALID,24.7724,VALID,44,VALID,0,
2011-07-10, 03:06:04,VALID,1004.41,VALID,0,INVALID,163.685,VALID,0.100563,VALID,24.7724,VALID,36,VALID,0,
2011-07-10, 03:07:04,VALID,1004.44,VALID,0,INVALID,163.708,VALID,0,VALID,24.7724,VALID,27,VALID,0,
2011-07-10, 03:08:04,VALID,1004.47,VALID,0,INVALID,163.685,VALID,0,VALID,24.8522,VALID,107,VALID,0,
2011-07-10, 03:09:04,VALID,1004.43,VALID,0,INVALID,163.655,VALID,0.100563,VALID,24.8697,VALID,106,VALID,0,
2011-07-10, 03:10:04,VALID,1004.43,VALID,0,INVALID,163.662,VALID,0,VALID,24.8892,VALID,101,VALID,0,
2011-07-10, 03:11:04,VALID,1004.43,VALID,0,INVALID,143.82,VALID,0,VALID,24.969,VALID,87,VALID,0,
2011-07-10, 03:12:04,VALID,1004.49,VALID,0,INVALID,123.733,VALID,0,VALID,24.9866,VALID,91,VALID,0,
2011-07-10, 03:13:04,VALID,1004.52,VALID,0,INVALID,121.421,VALID,0.100563,VALID,25.0255,VALID,98,VALID,0,
2011-07-10, 03:14:04,VALID,1004.55,VALID,0,INVALID,120.826,VALID,0,VALID,25.0469,VALID,108,VALID,0,
2011-07-10, 03:15:04,VALID,1004.52,VALID,0,INVALID,113.708,VALID,0,VALID,25.006,VALID,123,VALID,0,
2011-07-10, 03:16:04,VALID,1004.51,VALID,0,INVALID,113.365,VALID,0,VALID,25.006,VALID,119,VALID,0,
2011-07-10, 03:17:04,VALID,1004.49,VALID,0,VALID,104,VALID,0,VALID,24.9671,VALID,117,VALID,0,
2011-07-10, 03:18:04,VALID,1004.51,VALID,0,VALID,104,VALID,0.100563,VALID,24.9495,VALID,139,VALID,0,
2011-07-10, 03:19:04,VALID,1004.48,VALID,0,VALID,104,VALID,0,VALID,24.8911,VALID,139,VALID,0,
2011-07-10, 03:20:04,VALID,1004.52,VALID,0,VALID,104,VALID,0,VALID,24.8522,VALID,112,VALID,0,
2011-07-10, 03:21:04,VALID,1004.6,VALID,0,INVALID,120.712,VALID,0.100563,VALID,24.7529,VALID,98,VALID,0,
2011-07-10, 03:22:04,VALID,1004.63,VALID,0,INVALID,131.69,VALID,0,VALID,24.675,VALID,112,VALID,0,
2011-07-10, 03:23:04,VALID,1004.67,VALID,0,INVALID,163.685,VALID,0,VALID,24.5972,VALID,72,VALID,0,
2011-07-10, 03:24:04,VALID,1004.64,VALID,0,INVALID,163.693,VALID,0,VALID,24.422,VALID,84,VALID,0,
2011-07-10, 03:25:04,VALID,1004.6,VALID,0.5,INVALID,163.762,VALID,0,VALID,24.13,VALID,65,VALID,0,
2011-07-10, 03:26:04,VALID,1004.63,VALID,0.5,INVALID,163.746,VALID,0,VALID,23.8769,VALID,118,VALID,0,
2011-07-10, 03:27:04,VALID,1004.59,VALID,0.5,INVALID,163.784,VALID,0,VALID,23.6823,VALID,109,VALID,0,
2011-07-10, 03:28:04,VALID,1004.64,VALID,0,INVALID,163.762,VALID,0,VALID,23.585,VALID,105,VALID,0,
2011-07-10, 03:29:04,VALID,1004.77,VALID,0,INVALID,163.807,VALID,0,VALID,23.5071,VALID,98,VALID,0,
2011-07-10, 03:30:04,VALID,1004.78,VALID,0.5,INVALID,163.807,VALID,0,VALID,23.47,VALID,93,VALID,0,
2011-07-10, 03:31:04,VALID,1004.75,VALID,0.5,INVALID,163.807,VALID,0,VALID,23.4098,VALID,81,VALID,0,
2011-07-10, 03:32:04,VALID,1004.78,VALID,0.5,INVALID,163.792,VALID,0,VALID,23.3709,VALID,105,VALID,0,
2011-07-10, 03:33:04,VALID,1004.83,VALID,0,INVALID,163.792,VALID,0,VALID,23.3514,VALID,56,VALID,0,
2011-07-10, 03:34:04,VALID,1004.81,VALID,0,INVALID,163.807,VALID,0.100563,VALID,23.3514,VALID,85,VALID,0,
2011-07-10, 03:35:04,VALID,1004.81,VALID,0.5,INVALID,163.815,VALID,0.100563,VALID,23.332,VALID,113,VALID,0,
2011-07-10, 03:36:04,VALID,1004.81,VALID,1,INVALID,163.8,VALID,0,VALID,23.332,VALID,75,VALID,0,
2011-07-10, 03:37:04,VALID,1004.83,VALID,0.5,INVALID,163.83,VALID,0,VALID,23.3125,VALID,22,VALID,0,
2011-07-10, 03:38:04,VALID,1004.75,VALID,0.5,INVALID,163.815,VALID,0,VALID,23.2736,VALID,28,VALID,0,
2011-07-10, 03:39:04,VALID,1004.77,VALID,1,INVALID,163.815,VALID,0,VALID,23.2347,VALID,12,VALID,0,
2011-07-10, 03:40:04,VALID,1004.75,VALID,0.5,INVALID,163.815,VALID,0.100563,VALID,23.1957,VALID,23,VALID,0,
2011-07-10, 03:41:04,VALID,1004.68,VALID,0.5,INVALID,163.823,VALID,0,VALID,23.1763,VALID,32,VALID,0,
2011-07-10, 03:42:04,VALID,1004.66,VALID,0,INVALID,163.815,VALID,0,VALID,23.1356,VALID,60,VALID,0,
2011-07-10, 03:43:04,VALID,1004.62,VALID,0.5,INVALID,163.784,VALID,0,VALID,23.1374,VALID,15,VALID,0,
2011-07-10, 03:44:04,VALID,1004.56,VALID,0,INVALID,163.815,VALID,0,VALID,23.1179,VALID,10,VALID,0,
2011-07-10, 03:45:04,VALID,1004.55,VALID,0.5,INVALID,163.845,VALID,0,VALID,23.1179,VALID,17,VALID,0,
2011-07-10, 03:46:04,VALID,1004.51,VALID,0,INVALID,163.861,VALID,0,VALID,23.1197,VALID,17,VALID,0,
2011-07-10, 03:47:04,VALID,1004.51,VALID,0,INVALID,163.845,VALID,0,VALID,23.0807,VALID,52,VALID,0,
2011-07-10, 03:48:04,VALID,1004.53,VALID,0.5,INVALID,163.83,VALID,0,VALID,23.0613,VALID,20,VALID,0,
2011-07-10, 03:49:04,VALID,1004.52,VALID,0,INVALID,163.83,VALID,0,VALID,23.0206,VALID,12,VALID,0,
2011-07-10, 03:50:04,VALID,1004.54,VALID,0,INVALID,163.83,VALID,0,VALID,23.0224,VALID,36,VALID,0,
2011-07-10, 03:51:04,VALID,1004.57,VALID,0,INVALID,163.815,VALID,0,VALID,23.0224,VALID,26,VALID,0,
2011-07-10, 03:52:04,VALID,1004.59,VALID,0,INVALID,163.838,VALID,0,VALID,23.0418,VALID,28,VALID,0,
2011-07-10, 03:53:04,VALID,1004.59,VALID,0,INVALID,163.815,VALID,0,VALID,23.0418,VALID,75,VALID,0,
2011-07-10, 03:54:04,VALID,1004.59,VALID,0,INVALID,163.853,VALID,0,VALID,23.0206,VALID,18,VALID,0,